Location: Chippewa Lake
(41.0698°N, 81.9010°W)
Time: 01:53:59
(UTC+00:00)

BREEZE-M DEB (TANK) - Pass Details

Date: 09 May 2021
Orbit: 326 x 12033 km, 49.6° (Epoch: 24 June)

Event Time Altitude Azimuth Distance (km) Brightness Sun altitude
Exits shadow 07:39:04 57° 203° (SSW) 980 2.9 -23.6°
Maximum altitude 07:40:02 74° 141° (SE) 991 3.2 -23.5°
Drops below altitude 10° 07:52:03 10° 59° (ENE) 5,645 8.2 -22.2°
Sets 07:59:56 0° 59° (ENE) 8,501 9.4 -21.2°
